Wind_Gust
6 11 9 12 15 15 12 11 14 15 15 13 9 7 13 12 14 11 13 17 13 13 11 14 14 12 11 13 14 16 14 12 16 24 31 26 10 10 12 17 20 23 29 28 29 33 28 21 17 16 15 20 21 18 18 19 20 23 27 25 26 24 23 25 25 25 25 27 25 21 24 26 23 23 19 19 19 19 19 18 18 18 18 16 17 17
10 9 12 15 18 14 15 10 8 13 13 15 11 9 15 8 18 12 14 13 16 9 10 15 16 13 10 12 14 14 11 14 15 18 24 31 23 10 15 17 19 22 22 17 18 20 18 17 16 15 19 18 22 19 21 24 26 27 25 27 26 27 27 26 26 25 25 25 30 30 27 23 22 22 24 21 18 19 18 18 18 18 17 18 18 17
13 12 16 19 12 8 15 16 16 12 12 10 13 11 9 15 12 13 11 11 8 6 14 11 13 18 13 14 14 12 13 16 16 16 20 23 25 14 14 15 18 18 17 19 23 23 23 19 16 23 15 17 21 23 26 25 23 22 25 27 24 25 26 26 26 25 26 23 21 22 24 24 23 18 19 19 19 18 19 19 20 20 19 19 18 18
13 8 18 20 10 8 8 8 8 7 4 4 9 7 12 10 9 20 10 9 8 12 14 8 15 20 11 11 14 15 10 11 11 13 16 17 22 19 16 18 18 18 20 19 22 25 24 20 18 17 22 26 24 21 21 25 29 25 27 27 30 28 25 24 24 24 21 20 17 14 18 17 20 22 18 16 16 18 18 20 20 19 18 18 18 18
10 15 8 6 6 6 7 7 7 7 11 6 5 8 9 9 10 13 16 13 11 9 6 12 17 22 7 11 12 11 7 9 12 12 14 17 18 18 11 18 18 19 20 21 22 24 24 24 24 26 23 23 26 29 27 24 28 28 28 30 31 32 32 30 28 27 22 19 16 15 15 15 14 12 18 19 20 22 23 22 20 21 18 20 20 18
11 10 10 16 10 8 9 11 9 5 11 9 9 9 10 10 12 12 15 17 19 16 7 13 25 24 9 10 13 15 12 14 12 10 15 18 20 21 12 14 21 17 9 21 25 28 28 32 34 29 26 25 25 27 33 30 29 28 28 27 29 29 25 26 28 30 26 25 24 23 23 23 23 24 24 29 31 27 25 25 17 17 20 19 19 18
8 13 13 10 9 7 7 8 9 7 9 7 16 5 6 7 8 11 13 12 12 20 10 7 11 38 13 17 12 11 11 16 15 11 14 15 18 16 11 11 16 18 17 16 14 20 23 24 30 31 33 33 30 29 26 33 40 38 33 29 29 29 30 32 27 26 26 24 24 27 28 27 28 29 29 20 18 21 18 15 18 19 18 20 21 18
10 16 13 12 8 10 10 14 10 6 9 13 9 4 6 7 7 8 9 5 13 12 19 7 12 19 34 32 9 12 10 13 13 15 16 18 13 12 10 11 12 15 15 15 17 18 17 16 17 23 28 31 33 32 26 25 27 39 37 31 29 28 31 33 31 30 31 29 27 26 26 26 26 25 25 23 21 17 17 18 18 17 18 18 19 20
6 15 9 13 9 11 13 10 14 5 10 16 8 6 6 4 6 8 10 14 14 15 33 13 5 19 20 28 10 6 14 16 15 15 15 15 15 14 15 15 13 14 15 15 18 18 18 19 27 29 33 32 33 30 29 29 28 29 35 38 34 32 31 34 33 33 32 30 29 29 27 26 25 25 20 17 15 19 19 19 17 18 18 18 18 19
10 6 14 12 10 15 10 11 5 7 13 6 5 5 5 5 5 6 8 12 14 17 32 16 7 18 27 22 21 7 8 16 16 16 15 17 16 16 17 16 15 15 15 15 17 19 19 19 25 25 27 28 28 27 26 30 31 31 29 30 37 33 30 32 34 33 31 30 28 29 27 27 26 22 17 16 19 18 17 19 18 18 18 18 18 19
18 16 14 9 9 9 6 8 4 6 9 4 11 12 13 11 9 7 7 8 8 19 28 10 7 7 21 23 20 19 18 11 16 18 17 17 18 19 17 15 15 17 18 17 16 18 19 19 24 29 32 32 36 33 31 27 26 28 29 29 30 35 32 29 32 31 30 29 27 28 27 28 26 24 21 19 19 19 17 22 22 20 20 18 20 19
23 12 11 9 7 9 11 19 5 5 6 12 13 10 14 12 13 10 10 7 12 24 7 4 10 5 13 23 15 11 12 12 13 18 21 24 25 24 20 21 19 17 17 16 15 17 18 18 19 26 32 35 34 31 30 30 29 27 25 26 28 26 25 28 31 31 33 32 32 31 31 31 30 26 24 27 27 26 26 25 24 20 17 19 19 19
18 15 13 10 4 21 18 17 14 12 11 19 10 12 14 17 18 15 16 16 10 20 5 7 13 15 15 25 22 21 23 19 13 15 19 21 23 23 22 24 23 20 17 17 15 15 16 17 19 23 32 34 34 33 30 30 27 27 28 26 27 27 25 25 26 29 31 30 31 32 32 32 30 27 25 26 25 23 25 25 22 22 24 20 21 23
16 12 9 16 9 13 18 17 20 17 15 16 14 7 9 12 11 10 12 9 13 15 6 6 7 18 20 26 21 22 17 14 16 18 17 17 20 22 23 23 26 25 20 18 15 16 16 16 17 23 29 32 32 32 32 29 27 25 24 25 28 29 27 24 25 28 30 32 32 31 31 30 29 28 29 28 27 25 24 23 24 25 25 24 25 22
14 22 15 16 19 16 19 8 6 9 12 16 5 9 10 7 13 13 10 10 12 17 14 6 9 17 7 16 8 13 18 20 19 20 20 16 16 17 17 18 22 21 20 19 18 18 19 20 17 22 27 31 31 31 33 30 29 25 25 26 28 29 27 26 27 26 28 30 30 29 29 28 27 29 28 28 26 26 25 23 23 23 21 24 24 24
5 17 22 6 11 17 15 8 7 9 13 6 6 10 9 12 10 12 9 9 13 18 21 10 15 9 17 14 21 23 25 25 24 21 18 20 20 21 21 23 22 22 23 22 21 22 21 18 18 19 25 29 30 29 29 27 25 24 25 26 29 29 28 28 27 27 30 30 28 26 25 26 25 24 23 21 20 21 22 23 24 23 22 23 20 18
10 17 7 19 20 13 13 12 16 8 12 9 6 8 9 5 11 9 8 11 6 7 24 12 19 19 16 16 17 20 22 23 26 29 30 28 27 24 22 23 23 23 23 24 24 23 23 23 22 21 19 21 25 28 33 34 31 33 33 27 27 26 23 25 27 29 28 29 25 25 27 25 23 24 23 26 24 26 26 25 24 23 23 18 19 20
6 28 19 11 18 9 8 16 20 16 10 9 8 9 7 8 6 8 11 9 7 11 22 6 11 19 13 30 16 24 28 28 29 31 29 26 27 29 28 23 24 25 24 22 22 22 20 19 21 23 23 20 20 22 23 26 26 32 35 35 34 33 33 30 29 28 27 27 29 29 28 25 25 26 27 26 25 24 24 24 25 24 23 25 24 21
5 24 13 6 10 14 17 12 14 8 16 10 8 10 11 11 10 5 8 10 7 13 19 12 7 16 10 20 21 23 27 28 30 29 28 30 30 30 30 31 27 26 28 27 26 27 27 26 26 25 24 26 22 20 15 16 19 20 22 26 33 36 35 33 31 28 27 27 28 29 32 33 32 29 26 24 23 22 24 25 25 25 29 25 23 24
6 9 19 4 9 18 19 10 18 16 10 12 12 9 9 11 10 7 15 8 7 10 7 15 5 23 11 12 11 20 22 24 29 31 28 27 24 25 27 28 28 26 26 27 27 27 28 27 25 24 24 25 26 26 23 22 28 27 27 27 24 25 26 27 28 28 29 30 27 25 24 24 26 26 25 24 24 25 24 26 26 27 23 26 26 25
5 4 16 19 10 10 18 10 9 14 18 12 12 6 7 9 7 9 10 10 10 10 8 13 22 19 16 10 15 20 22 23 23 29 29 26 25 25 22 24 26 25 25 27 26 27 28 27 26 26 24 22 22 24 27 29 28 29 31 32 28 27 28 27 28 26 26 25 26 24 25 26 24 25 24 22 23 23 24 23 24 26 28 25 25 25
8 3 12 24 25 16 14 11 12 10 7 6 5 7 9 13 10 7 15 10 11 13 13 7 22 24 22 11 17 22 21 24 26 25 27 26 26 26 27 24 23 25 24 23 24 24 26 26 26 27 26 22 20 20 19 21 25 29 31 35 34 35 35 30 29 27 24 22 25 25 27 26 25 26 24 23 22 22 23 23 25 24 21 22 26 26
5 7 6 18 15 20 19 20 9 7 9 11 9 9 10 7 6 7 11 11 7 12 5 6 10 22 12 15 27 28 27 27 26 26 29 26 24 24 27 25 24 22 22 24 24 24 25 25 24 23 22 21 20 19 20 18 22 23 22 24 26 31 33 32 35 34 31 27 24 25 25 24 24 24 26 24 23 21 21 22 22 22 24 25 23 23
7 9 10 17 16 15 7 7 7 8 6 4 7 7 10 12 10 12 12 6 8 8 9 8 12 27 13 26 29 26 25 23 21 22 28 31 25 25 25 26 26 26 26 25 24 22 23 24 23 22 21 23 23 21 19 19 20 21 19 21 21 25 27 26 20 25 24 22 27 30 30 30 28 25 29 29 28 28 27 22 21 21 23 24 23 25
13 6 7 17 24 16 6 8 6 8 13 10 13 16 13 15 13 13 14 5 7 8 12 7 21 21 15 25 24 26 32 32 28 28 25 28 26 24 26 25 25 25 24 24 26 25 24 23 26 24 21 19 20 22 19 18 15 19 20 19 23 24 23 23 21 20 22 23 24 23 23 23 24 25 25 25 25 26 25 24 23 20 22 23 22 23
5 5 7 15 21 25 31 27 25 20 18 18 10 18 16 19 18 16 8 7 8 5 6 9 20 17 23 23 25 28 31 33 32 28 28 24 22 26 26 27 27 27 27 26 25 25 25 24 23 24 23 21 19 20 20 19 16 14 14 16 13 17 17 19 18 21 23 23 23 23 23 24 22 23 24 24 25 27 26 25 23 23 21 22 23 22
7 5 5 9 9 14 17 18 14 9 12 11 16 17 20 16 15 10 8 7 10 11 13 10 13 28 28 27 28 31 30 32 34 36 37 34 30 29 24 28 27 27 27 29 26 25 24 24 24 23 24 22 19 17 19 18 18 15 14 12 15 17 18 19 19 20 22 22 22 21 22 26 24 27 26 26 26 24 24 24 24 24 24 23 23 23
7 9 9 10 12 16 16 18 17 12 11 9 14 19 17 17 16 12 10 11 11 13 10 10 18 22 25 24 27 33 33 31 32 31 33 33 30 29 28 28 27 29 29 29 29 30 28 26 25 22 23 24 24 21 20 19 16 14 14 14 12 11 16 22 26 32 30 31 30 28 26 25 25 25 25 24 24 24 25 24 23 24 23 20 23 25
6 9 7 8 12 13 12 16 13 8 8 7 11 16 17 18 16 14 11 8 8 10 15 24 23 22 22 21 28 32 33 34 34 34 32 32 31 29 30 29 30 30 30 31 31 32 30 28 28 27 24 23 21 21 21 20 19 16 15 12 16 15 15 14 16 23 26 29 32 32 31 29 28 26 24 24 23 24 24 24 23 23 23 23 24 24
9 8 7 5 15 19 16 9 6 7 6 4 11 14 15 18 15 13 11 11 11 12 17 20 20 23 22 24 31 33 32 31 31 28 30 30 33 33 33 31 30 32 31 32 31 31 32 32 28 28 26 24 21 19 20 21 19 16 15 16 12 14 17 17 15 15 23 28 29 29 26 25 23 24 25 26 27 27 26 25 25 25 24 25 25 24
4 15 6 6 11 20 14 4 3 5 6 7 11 11 16 18 11 11 10 9 12 14 12 19 19 22 18 19 27 29 30 29 30 30 29 28 32 35 34 33 33 32 31 31 31 32 31 32 30 29 28 26 22 19 19 18 17 16 15 14 12 13 13 12 14 16 24 29 27 28 27 26 26 26 26 27 27 26 25 26 25 25 25 25 24 25
3 11 5 6 13 17 13 7 11 5 6 5 14 19 23 21 21 15 16 12 9 15 19 18 17 24 32 32 31 27 29 32 33 31 30 31 33 35 35 35 35 35 34 31 31 32 31 31 31 31 30 29 26 21 18 18 17 15 16 14 13 11 15 14 14 21 31 32 31 30 29 28 29 27 28 27 28 28 27 25 24 26 26 26 25 25
9 6 9 5 9 11 15 7 12 6 6 7 19 18 16 17 14 16 13 11 12 11 15 17 21 24 27 28 28 31 32 33 32 31 30 34 32 33 33 36 38 36 35 33 32 32 31 30 28 30 31 29 28 24 21 18 17 17 16 15 13 8 8 17 26 30 28 25 24 28 33 33 33 31 31 29 29 28 27 27 27 28 27 28 27 24
4 5 7 3 7 10 17 13 8 9 16 15 11 6 7 18 20 15 19 21 15 10 16 15 20 23 24 24 25 30 32 35 29 28 27 30 33 34 32 35 37 36 34 33 30 30 30 32 32 32 29 28 27 23 19 16 17 18 15 15 14 9 8 10 12 20 27 31 31 31 31 27 28 30 31 30 29 28 28 28 30 29 28 27 26 26
4 3 4 6 7 11 12 13 11 11 16 9 6 6 4 10 12 13 19 15 9 9 15 20 22 23 22 20 22 24 26 27 26 23 28 33 37 37 36 35 35 35 34 33 31 31 30 30 33 32 32 30 26 21 17 19 16 15 16 12 13 13 10 7 10 12 14 19 23 28 32 31 26 23 24 25 26 26 28 29 29 28 28 28 28 28
6 6 5 5 7 7 8 10 9 12 9 8 10 6 7 8 9 12 11 7 6 10 21 23 22 22 21 23 23 21 24 27 19 12 26 35 38 37 36 35 35 35 35 33 31 30 29 31 31 31 31 32 24 17 13 15 16 14 16 15 11 13 13 11 9 11 11 12 14 15 23 31 32 32 30 28 30 27 27 26 28 29 27 26 26 26
9 6 5 9 4 8 7 7 15 11 9 5 11 15 24 18 22 16 14 7 4 15 22 24 24 23 23 23 24 24 29 22 14 21 31 35 39 36 35 34 33 32 31 31 30 30 29 29 28 30 32 30 27 18 14 14 14 14 15 16 15 12 12 11 12 12 11 11 11 11 18 24 27 29 30 29 27 24 24 27 27 27 26 25 26 26
10 10 8 5 8 4 4 10 16 12 10 12 9 15 10 6 7 8 7 10 6 18 21 24 24 24 25 24 27 27 25 31 46 41 38 35 37 35 37 34 33 33 33 31 30 32 33 32 30 30 30 28 24 21 18 15 15 14 14 15 15 14 13 12 13 13 12 12 12 10 13 16 19 22 24 24 26 28 26 25 28 28 27 29 28 29
7 6 8 6 8 8 5 7 10 8 16 11 13 15 18 14 7 4 6 10 17 22 23 22 24 24 24 27 31 27 30 34 28 26 35 33 36 30 33 34 34 33 32 31 29 31 32 31 28 27 26 25 26 30 25 19 15 12 14 16 18 16 14 14 14 13 13 14 12 11 11 13 14 16 17 19 21 22 23 24 25 26 29 30 30 31
8 4 5 5 5 7 5 6 11 17 13 6 12 13 18 16 7 6 12 16 23 22 22 23 24 25 24 23 25 25 29 28 27 30 29 29 30 27 28 31 33 34 33 33 33 32 29 27 28 30 30 29 30 30 26 23 21 17 15 15 16 18 17 15 14 14 14 14 13 11 11 12 13 15 16 19 22 22 22 19 20 23 24 29 31 31
8 8 6 11 7 6 7 11 11 18 12 6 8 12 15 16 8 13 21 21 22 21 20 20 21 21 21 22 23 25 25 20 21 22 20 25 29 28 31 32 33 31 31 32 32 29 29 27 25 25 26 25 27 29 26 25 24 21 19 17 16 16 18 18 18 17 16 15 14 13 13 12 13 15 16 19 21 24 21 19 20 20 22 26 31 31
4 5 5 4 5 8 10 8 14 14 14 7 10 7 14 12 17 18 16 14 16 19 18 19 18 19 18 20 22 20 22 18 18 15 18 27 30 25 30 34 37 37 34 31 28 29 28 25 25 26 26 24 27 29 26 25 24 21 22 20 18 18 19 19 18 18 16 16 15 15 15 15 13 14 17 18 19 17 18 20 23 23 22 20 24 31
13 10 8 6 8 7 8 7 12 10 8 8 8 7 8 14 13 12 14 14 13 14 14 19 17 18 17 19 18 18 19 18 17 18 18 22 25 24 25 31 32 32 32 33 34 32 30 26 26 24 22 23 24 24 24 24 22 21 22 22 23 23 23 21 20 20 20 18 15 15 16 16 15 16 14 15 19 21 22 22 24 25 23 25 24 27
7 7 9 10 13 8 6 11 14 13 9 7 7 8 9 10 8 10 8 14 15 12 13 15 17 16 17 16 19 20 17 17 17 18 18 21 24 24 23 26 32 32 31 28 27 29 28 27 27 27 23 23 24 24 24 25 25 24 23 24 25 24 24 22 22 21 21 20 18 18 18 17 18 18 17 17 18 21 23 24 23 19 16 16 16 18
11 10 12 8 8 14 15 15 14 9 9 8 8 8 6 8 5 6 6 10 11 14 9 10 15 17 16 17 17 18 18 17 16 18 19 21 21 23 25 25 26 30 29 29 28 27 25 28 28 30 30 27 27 27 26 25 26 25 27 27 25 26 27 25 24 23 23 22 19 19 19 19 19 19 19 18 17 19 20 18 15 17 15 17 18 18
3 6 4 4 12 7 10 15 7 6 7 9 7 8 6 6 9 6 7 10 10 12 11 10 14 15 15 16 16 18 17 17 15 17 17 19 21 20 21 21 24 27 30 29 30 33 30 29 30 32 34 32 29 30 27 26 25 26 28 27 25 25 24 25 25 25 25 23 20 20 20 19 20 20 20 20 18 19 20 20 18 22 20 21 23 23
5 4 6 9 4 3 16 3 5 7 7 6 6 8 6 6 6 5 8 7 9 12 13 11 11 12 13 13 16 15 18 17 14 15 15 18 21 21 22 23 24 26 30 32 29 29 31 29 32 34 32 32 31 30 28 26 26 24 25 28 28 29 30 25 27 27 26 26 23 21 21 22 22 21 22 20 20 19 17 16 16 19 20 22 23 22
10 3 4 7 4 9 16 7 8 6 8 8 8 7 6 10 11 10 7 7 9 10 10 12 12 13 12 16 17 17 18 17 15 16 17 17 19 20 21 22 24 25 24 24 25 25 25 27 27 29 29 29 31 29 28 27 28 28 29 30 37 43 44 36 30 28 26 24 23 23 22 24 21 24 20 21 22 21 19 16 16 20 23 25 25 26
7 3 10 7 11 11 8 12 12 8 9 8 8 7 9 8 8 10 9 10 10 12 14 14 12 11 12 14 16 17 18 18 15 14 17 18 19 21 22 22 21 22 24 27 29 31 30 27 28 27 27 27 29 31 30 28 27 28 33 41 45 51 49 47 40 33 27 20 20 23 21 22 22 22 24 21 18 16 13 17 18 21 22 23 28 32
6 15 7 5 10 12 15 14 6 8 12 12 7 10 8 9 6 6 7 9 11 13 13 13 16 15 12 14 16 18 19 18 17 15 17 19 20 20 21 22 20 22 24 24 26 27 28 29 29 29 30 28 28 28 29 29 32 35 41 43 43 43 44 43 40 34 30 26 21 21 21 20 19 19 19 17 16 14 12 12 14 10 7 11 12 16
13 15 11 14 12 15 13 13 10 8 7 12 9 8 6 6 6 7 7 8 11 11 11 13 17 18 17 16 15 17 17 18 18 13 14 18 20 20 21 21 23 23 24 24 25 28 29 29 29 29 30 30 29 31 31 33 36 39 38 37 36 39 42 40 38 36 33 30 26 23 19 16 14 14 15 14 14 14 15 15 19 18 19 15 15 17
Wind_Speed
1 5 2 1 5 6 5 4 6 4 1 2 2 1 6 3 6 5 4 10 1 3 4 3 3 4 7 8 9 9 7 6 7 7 7 3 2 4 5 8 9 8 9 10 11 10 11 10 7 6 6 7 9 11 12 12 12 13 14 13 14 13 12 12 12 11 12 12 11 10 12 13 11 10 9 9 9 9 9 10 10 10 10 10 10 10
4 4 3 2 4 5 6 3 3 3 1 3 3 1 6 2 5 4 3 4 4 1 3 4 6 5 6 8 9 8 5 7 6 5 7 6 2 4 5 8 9 9 7 10 11 11 8 8 7 5 7 9 11 11 13 15 16 16 15 14 10 8 11 12 13 13 12 12 12 13 12 10 9 10 10 9 8 9 9 10 11 10 10 10 10 10
6 0 2 3 4 4 1 2 2 2 1 2 1 1 1 6 3 9 3 3 2 1 7 4 6 8 8 9 9 7 7 5 5 5 6 6 7 4 6 6 7 8 10 10 10 10 8 7 7 7 8 10 13 14 16 16 15 14 11 12 14 11 8 9 11 11 12 11 10 10 9 10 8 7 7 7 8 9 10 11 11 11 10 11 10 10
5 3 6 3 3 4 4 3 3 3 1 0 0 0 3 3 3 4 4 3 5 1 4 4 8 9 6 7 9 9 5 5 5 5 8 6 6 5 5 5 6 7 8 11 9 11 12 6 7 7 8 9 7 10 11 13 15 13 14 15 16 14 15 12 11 11 9 9 7 6 5 7 8 8 8 8 8 10 10 12 11 10 10 11 10 11
4 7 2 3 4 2 3 5 4 2 4 2 1 2 2 3 3 3 4 4 3 3 1 5 8 9 2 3 3 3 2 4 6 5 6 6 4 5 5 6 5 7 7 9 11 11 11 9 7 9 10 7 9 11 13 14 14 12 17 18 19 17 18 17 15 14 11 9 7 8 6 6 6 4 8 10 10 11 12 11 11 11 10 11 10 10
5 3 0 3 4 4 2 5 2 1 2 4 4 4 3 3 3 4 3 4 6 4 2 5 7 6 3 6 5 6 5 7 4 6 8 9 8 4 5 7 8 6 6 8 10 10 11 10 9 7 9 7 10 12 14 15 16 15 15 17 18 16 13 8 2 3 6 9 10 10 10 10 10 11 11 14 16 13 13 13 8 9 10 10 10 10
2 2 3 1 3 3 2 0 3 0 0 1 3 1 1 1 0 1 3 4 3 4 3 2 1 12 3 5 2 5 5 8 7 6 9 9 7 6 5 6 8 9 11 10 9 9 10 10 8 7 8 10 11 12 10 10 12 15 16 17 18 14 14 16 15 14 12 11 11 13 14 13 14 14 13 9 6 9 8 7 10 9 9 10 11 10
2 6 4 3 4 5 6 8 3 1 1 2 2 1 1 3 3 3 1 1 4 1 3 1 4 4 13 3 0 2 4 7 7 8 8 8 6 6 7 7 8 9 8 9 11 12 11 10 8 9 9 10 12 9 6 8 10 13 15 16 16 13 16 18 17 17 17 15 13 14 14 14 14 13 12 11 10 7 7 10 10 9 9 10 10 10
1 5 4 5 3 5 5 3 8 1 1 2 4 1 2 2 4 4 2 3 2 1 6 2 1 2 6 2 5 3 5 5 6 7 7 8 9 9 10 9 9 10 10 10 10 12 12 12 13 9 9 10 11 9 9 11 11 12 13 15 16 17 18 19 21 18 19 17 16 15 14 14 13 14 10 8 9 8 9 11 9 10 9 9 10 10
2 1 2 1 2 4 3 5 3 0 2 2 2 2 3 0 1 0 1 2 1 1 5 3 0 3 9 3 3 3 1 6 8 10 10 10 10 10 11 10 10 10 10 10 9 10 11 12 12 11 9 9 9 8 10 9 10 12 13 16 18 18 17 18 22 20 20 20 16 16 15 16 14 11 9 9 11 10 9 10 10 9 9 9 9 10
4 5 2 4 1 1 2 4 1 3 1 2 2 4 6 3 4 2 4 1 3 0 3 1 2 1 6 2 0 3 4 5 9 9 9 11 12 12 11 9 9 11 11 10 9 10 11 11 11 9 9 10 8 7 9 9 10 11 12 14 17 18 16 17 20 20 20 18 16 16 17 18 17 14 12 11 10 9 9 11 12 11 10 9 9 9
5 2 2 1 1 2 0 3 2 0 1 4 3 2 4 4 6 3 4 3 1 3 2 1 2 1 3 5 3 2 6 7 4 8 14 16 16 15 13 12 11 11 10 10 9 11 11 12 11 6 8 8 8 7 9 10 10 11 11 12 14 15 15 15 17 20 20 19 18 16 17 18 17 16 13 14 14 14 15 14 13 10 8 9 9 9
3 2 2 6 2 6 3 3 3 2 4 7 2 5 7 3 6 3 6 5 1 1 1 2 2 3 6 8 8 13 11 8 7 8 11 13 15 15 14 14 12 11 10 10 9 9 10 9 11 11 10 7 6 8 10 12 12 12 12 14 15 15 15 15 16 18 19 19 19 18 19 19 17 16 15 15 14 13 13 13 12 11 12 10 10 11
6 2 3 4 4 1 4 8 8 6 5 7 6 3 4 3 4 2 3 1 4 3 2 2 3 3 4 7 5 6 7 5 7 9 9 10 12 13 13 11 10 9 8 9 9 10 10 10 11 10 10 10 9 8 10 11 11 12 12 16 17 17 15 14 15 17 18 19 20 19 18 17 15 16 15 15 15 14 12 11 13 14 13 12 13 11
6 7 6 5 3 4 3 2 3 5 6 3 2 0 1 2 0 3 2 1 4 7 3 2 1 4 3 4 3 5 5 5 5 7 7 7 8 9 8 7 10 14 13 11 11 11 11 12 11 11 11 11 11 10 9 9 11 12 13 15 18 19 17 17 17 16 18 17 19 18 17 16 14 15 14 14 13 14 14 12 12 12 11 11 12 12
2 5 8 1 4 2 5 4 2 2 1 1 2 3 3 1 2 3 0 2 4 5 6 2 4 3 3 5 5 5 4 6 8 9 11 13 13 13 13 14 13 12 14 13 13 14 14 12 11 10 11 11 11 10 7 9 10 12 14 16 19 19 19 18 17 16 17 18 16 17 16 16 15 13 12 11 10 10 12 13 13 12 11 11 9 8
2 3 3 6 4 1 2 2 3 3 1 3 2 1 2 2 3 1 1 2 1 1 6 1 7 4 6 3 3 9 15 15 17 19 19 18 18 16 13 14 15 14 14 14 14 14 15 15 14 13 12 12 12 10 7 9 10 13 14 15 16 16 15 17 17 18 17 16 15 16 17 16 14 14 13 12 13 13 12 12 12 12 12 9 7 8
0 8 6 2 3 1 1 0 7 7 1 1 2 4 3 2 1 2 2 2 1 2 4 2 4 6 5 2 7 16 18 19 19 20 19 18 17 19 17 14 14 16 15 14 14 14 13 13 14 14 14 13 13 13 10 8 9 10 11 14 16 15 16 16 16 16 15 16 17 15 15 14 15 14 14 13 13 11 9 9 9 8 8 11 11 9
1 4 5 1 4 3 3 2 3 2 5 4 1 2 2 1 1 1 1 3 1 3 4 4 2 3 2 4 11 15 17 19 20 19 18 20 19 19 19 21 18 17 17 16 16 16 16 16 16 16 16 17 15 14 11 7 7 8 8 10 13 16 18 18 16 16 14 16 14 15 19 20 18 16 14 13 13 11 10 10 9 9 10 8 7 8
2 1 6 2 3 6 2 4 2 6 4 3 1 2 0 2 2 1 1 1 2 4 2 4 2 3 2 3 7 13 14 15 18 20 18 17 16 15 16 16 17 16 16 16 15 16 16 16 16 16 15 16 17 16 13 8 5 9 10 11 11 11 10 9 11 12 13 13 12 11 10 12 14 14 14 14 13 12 12 11 10 10 8 9 7 9
1 1 2 7 6 5 2 1 2 3 5 5 5 1 1 1 0 1 1 2 1 1 2 2 5 2 1 3 9 13 14 15 15 18 17 15 16 16 14 14 15 15 14 15 15 15 17 17 16 17 16 14 13 11 11 8 4 4 7 8 9 10 8 10 11 11 10 9 8 7 5 3 2 4 5 6 7 9 9 8 8 8 7 4 7 7
2 1 4 6 7 3 2 0 2 4 2 1 0 1 3 7 4 3 3 3 1 1 3 1 7 1 1 5 8 11 11 14 17 16 16 17 16 15 15 15 13 14 14 14 15 14 15 16 16 17 15 13 12 13 12 11 7 1 2 3 6 8 8 9 6 6 7 8 8 9 9 9 7 7 8 10 7 4 3 4 5 5 5 7 7 7
1 2 1 6 3 8 3 1 2 2 2 1 2 2 4 3 2 2 5 1 1 4 1 2 2 5 4 3 5 7 10 14 16 16 17 16 16 16 15 15 15 12 12 13 14 14 14 14 14 14 15 14 13 11 10 9 8 6 3 4 5 8 8 8 10 12 12 10 9 8 5 1 1 7 13 11 5 5 8 5 3 4 7 8 7 7
2 1 0 6 7 2 3 2 1 2 0 2 1 2 5 6 5 3 4 3 2 1 2 1 2 5 3 6 4 3 5 8 8 11 17 17 15 14 16 17 17 16 14 12 12 12 12 13 13 13 13 13 13 13 13 10 9 7 5 4 5 8 9 8 6 5 4 5 8 9 12 15 17 15 11 13 13 16 16 13 8 7 8 9 7 8
1 1 3 3 3 1 1 1 1 2 3 2 3 4 3 6 6 6 4 1 1 2 3 2 3 5 2 2 9 7 9 11 11 11 13 16 16 15 15 14 15 16 15 14 14 15 15 14 15 14 13 12 12 12 12 11 9 7 6 6 7 8 8 8 6 6 7 9 10 10 11 13 12 14 14 14 14 17 16 15 14 11 11 10 9 9
0 1 1 2 5 7 7 8 8 8 6 4 2 3 3 7 9 7 3 2 2 1 3 2 4 7 9 5 10 13 10 11 10 11 12 12 14 15 15 15 15 15 16 17 16 16 17 15 13 14 14 12 11 11 12 11 10 9 6 7 7 7 6 7 7 8 8 8 10 10 11 11 12 14 16 15 14 15 13 12 13 13 10 10 10 9
1 1 1 3 4 4 6 5 2 2 2 1 6 5 7 5 4 2 2 2 4 5 6 5 5 12 16 15 15 17 14 13 13 14 14 14 17 16 15 15 14 15 16 18 16 15 15 15 16 15 15 14 12 10 11 11 11 10 9 6 4 6 8 8 9 9 10 10 11 11 11 11 12 13 13 13 14 13 12 12 11 11 12 11 10 10
2 1 5 6 7 7 5 6 2 2 4 4 5 5 3 4 5 4 2 3 5 6 3 3 12 12 13 14 15 16 17 14 11 13 13 12 15 15 16 17 17 16 15 16 18 19 18 17 16 15 15 16 15 13 12 12 10 9 8 9 5 3 5 7 9 10 10 10 11 12 12 12 12 12 12 11 10 10 11 11 10 11 10 10 11 11
2 2 1 4 6 6 6 7 6 2 5 4 2 2 5 6 5 5 3 4 4 2 7 13 13 13 12 11 12 14 16 17 12 12 11 10 12 16 18 18 18 20 18 18 19 20 20 18 17 18 16 15 14 14 14 12 12 10 10 8 7 4 4 5 8 9 10 10 11 11 11 10 9 8 9 9 8 9 10 10 10 9 9 10 10 9
2 3 3 2 4 2 4 4 2 4 3 2 3 2 2 5 5 4 4 5 5 5 7 9 13 12 8 11 15 15 14 15 10 6 7 9 13 15 17 18 17 20 20 19 20 19 19 20 18 18 17 16 14 13 13 13 12 10 9 10 8 6 5 3 5 6 8 10 10 10 9 9 8 8 9 9 10 9 9 9 9 9 10 11 10 9
1 3 4 2 2 3 1 0 1 2 4 4 5 4 3 3 4 2 5 5 7 5 5 10 12 9 5 9 12 13 11 11 9 7 9 8 10 13 16 17 15 18 20 19 19 19 20 20 19 19 19 17 15 13 12 11 11 10 10 9 8 6 6 3 5 6 7 9 9 8 9 9 10 10 10 10 10 9 10 10 9 10 11 11 11 11
0 3 2 1 3 5 1 2 3 2 3 2 2 4 3 4 4 3 5 5 3 7 10 10 8 8 11 12 11 11 13 14 15 13 11 9 11 15 15 18 15 16 19 20 19 20 20 20 20 20 20 19 18 14 12 11 11 10 10 9 8 6 5 4 5 6 7 7 6 7 8 9 10 10 11 11 12 12 10 10 10 11 11 11 11 10
3 1 0 0 1 5 2 1 4 2 3 2 4 4 2 1 2 4 6 6 4 3 4 9 9 9 11 12 13 14 14 16 14 13 11 12 13 14 15 17 15 15 16 19 21 20 19 19 18 20 20 18 17 15 14 12 10 10 10 9 8 5 3 3 5 6 6 6 6 6 7 8 9 10 10 11 11 10 10 10 11 12 12 12 11 9
1 2 1 0 2 3 4 5 1 2 1 3 3 4 3 1 2 4 5 6 8 1 4 5 8 9 10 12 13 15 15 15 13 10 8 8 11 13 14 15 16 15 15 15 18 18 19 17 17 18 19 18 18 15 13 10 10 11 9 9 8 6 6 3 4 5 6 6 7 7 7 8 9 10 10 9 8 8 9 11 13 13 12 11 11 12
2 2 2 2 2 4 4 6 2 1 6 2 2 3 3 1 2 3 7 7 5 1 6 8 8 10 10 10 11 12 12 12 13 10 7 8 11 11 14 15 16 16 17 16 18 19 18 18 19 19 19 19 16 13 11 11 10 9 10 7 7 5 4 3 3 3 4 5 6 6 6 7 8 9 10 10 10 10 10 12 11 12 11 11 12 13
3 3 2 1 2 1 1 3 2 4 3 4 5 3 2 0 1 3 4 3 1 1 6 6 7 10 10 11 11 10 11 12 8 4 5 9 12 14 14 14 15 16 17 17 18 18 18 19 19 19 19 18 15 10 8 9 10 9 9 9 7 7 5 4 3 4 3 4 5 6 7 7 7 7 7 7 7 8 10 11 11 12 10 9 9 9
5 3 2 3 1 2 2 3 6 4 4 1 0 1 1 1 1 1 3 3 2 1 3 6 8 9 10 9 11 11 13 10 4 4 5 11 13 13 14 15 14 16 14 16 18 17 16 17 17 18 18 18 16 12 8 8 9 9 9 10 9 7 7 6 5 4 4 4 4 4 5 6 8 8 7 7 8 9 9 9 10 9 7 9 9 10
6 5 3 1 2 1 0 4 5 4 2 4 4 5 2 3 3 3 2 4 2 3 3 4 8 10 11 10 11 12 10 9 12 11 12 13 13 14 13 13 13 14 14 15 16 17 18 17 16 17 17 18 15 13 11 9 8 9 8 9 9 9 8 7 8 5 4 5 5 5 6 7 8 8 8 8 9 10 10 10 9 8 7 9 10 11
4 3 4 3 1 1 1 2 3 2 5 4 4 5 4 3 3 3 2 4 2 3 5 4 8 8 9 10 11 10 10 11 10 10 12 14 14 14 15 14 14 13 14 14 16 17 18 17 16 16 16 16 17 18 16 13 10 8 8 10 11 10 9 8 7 7 7 5 4 5 6 6 6 7 7 8 10 10 10 10 10 9 8 9 9 10
5 1 1 2 1 2 2 2 4 5 3 2 7 4 2 1 5 3 3 3 2 4 5 4 7 9 9 9 10 8 9 10 10 11 13 13 12 12 12 15 16 14 15 15 15 16 16 15 16 18 19 19 19 20 18 15 12 11 9 9 10 11 10 9 9 9 9 8 7 5 6 6 6 7 7 8 9 9 10 9 8 8 9 10 10 11
0 1 1 6 4 3 5 4 3 5 4 3 4 5 2 3 4 2 3 6 4 4 5 3 6 7 6 9 7 8 6 7 9 11 11 11 12 12 11 11 12 12 13 15 15 15 15 14 13 15 16 15 17 18 16 14 13 12 11 11 9 10 10 11 11 10 10 9 8 7 5 5 6 8 8 7 8 8 8 8 9 9 9 10 9 8
1 2 1 2 2 4 5 3 5 4 6 4 3 3 2 2 1 5 6 2 2 5 5 4 5 5 4 5 6 6 7 8 9 9 10 11 11 11 12 12 13 12 10 11 13 14 14 13 15 15 15 15 16 17 15 15 13 12 12 11 11 12 11 11 11 10 10 10 9 9 8 6 5 6 7 7 7 6 7 6 7 7 8 7 7 9
5 4 3 2 1 3 3 1 5 2 0 4 2 1 1 1 5 4 1 3 1 4 4 4 3 6 3 5 5 7 7 7 8 9 10 10 11 12 12 13 15 15 16 16 16 16 15 14 15 15 14 13 14 14 14 15 14 13 13 13 15 13 13 12 11 10 10 10 10 9 9 9 8 7 6 7 7 7 8 7 6 7 7 7 8 8
3 2 2 3 5 2 2 2 3 4 1 3 3 1 2 5 2 3 3 3 3 2 2 3 4 4 4 5 7 7 6 6 8 9 10 10 10 11 11 11 12 13 13 13 13 15 15 14 14 15 14 13 13 13 12 14 12 13 14 16 15 14 14 13 13 12 11 10 10 9 9 9 9 9 7 8 8 8 9 8 7 7 7 7 7 7
5 3 5 2 3 4 5 6 6 5 4 3 5 4 3 3 1 3 3 3 3 3 1 2 4 5 5 4 5 6 6 5 7 8 8 10 10 10 11 12 12 13 14 14 14 15 14 14 16 17 17 14 14 14 14 13 14 14 17 16 15 15 16 15 14 13 12 12 10 10 9 9 9 9 9 9 9 9 10 10 8 8 7 6 6 7
1 2 1 1 5 3 4 8 3 2 2 3 4 5 3 2 1 2 3 1 3 3 2 2 4 4 5 4 4 5 6 7 7 8 8 9 10 10 10 11 12 13 14 14 15 16 15 14 13 15 18 17 17 16 14 14 14 15 16 15 13 14 14 15 14 13 12 11 11 10 9 10 11 11 11 12 10 10 10 11 10 9 8 7 7 8
2 1 2 2 1 1 4 1 2 4 2 2 3 2 3 4 3 2 2 3 2 2 2 3 3 3 3 3 3 5 6 6 6 7 7 8 10 10 10 11 11 11 13 15 15 15 15 15 15 17 18 19 18 16 16 16 14 14 15 15 15 14 14 14 13 12 12 11 11 11 10 12 11 10 11 12 11 10 10 9 9 9 9 8 8 8
4 1 0 3 2 3 6 2 4 4 4 3 5 4 3 3 3 3 2 1 2 2 2 2 2 2 3 4 5 5 5 5 6 7 7 6 8 9 10 11 12 12 13 12 13 15 15 15 16 16 17 16 17 17 16 16 16 16 17 16 16 15 15 13 13 12 12 13 11 11 11 12 15 15 11 11 11 11 10 9 9 9 10 10 9 8
2 1 3 2 3 4 4 7 8 4 6 5 3 5 5 3 2 1 1 0 0 1 3 3 1 2 2 2 3 3 4 6 5 5 6 6 7 9 10 11 11 10 10 13 14 13 13 14 15 16 16 14 14 15 16 16 15 16 17 16 16 16 15 14 14 13 12 11 11 12 11 12 12 12 12 11 10 8 3 6 7 7 6 0 3 6
2 6 2 0 4 5 6 7 2 1 4 4 4 6 5 5 3 2 1 1 1 2 2 2 4 3 1 1 3 3 4 5 6 6 6 5 6 8 9 10 11 11 12 11 11 12 13 14 14 15 15 13 14 14 15 15 14 14 14 15 14 15 15 16 13 11 11 11 11 11 11 10 10 11 10 9 8 7 6 9 12 7 0 2 8 14
7 6 5 6 5 6 7 8 6 4 4 7 5 3 3 3 4 4 4 3 1 0 1 1 2 4 5 5 3 3 3 4 6 6 7 7 6 7 7 8 10 11 12 13 14 16 15 15 15 15 16 16 15 15 15 15 15 15 15 14 14 13 12 13 13 15 16 16 14 13 10 8 7 7 8 7 6 7 9 8 11 16 15 13 12 14
Wind_Direction
12 70 54 329 289 277 283 220 223 248 210 284 332 227 265 271 281 271 271 264 348 321 253 257 265 267 285 284 280 281 311 317 303 308 302 295 256 282 292 293 293 293 281 292 293 284 275 264 241 209 180 166 166 172 171 168 175 180 181 177 181 185 184 184 183 182 181 184 186 191 197 203 196 196 195 198 199 201 204 203 199 195 194 189 187 185
65 49 324 225 263 284 276 256 240 304 188 233 262 280 291 230 253 257 268 338 319 186 285 297 311 282 263 277 278 285 308 284 274 287 294 297 243 252 273 284 292 286 295 303 308 301 285 267 243 197 180 167 168 178 172 176 181 184 180 171 168 180 192 196 193 183 186 189 192 192 199 194 189 191 197 199 200 203 206 206 201 198 195 192 189 186
12 23 274 278 281 297 267 165 191 213 289 115 205 157 354 284 230 283 293 295 274 6 274 312 325 293 282 270 271 262 255 259 246 229 256 278 288 263 268 273 286 307 305 305 296 303 295 274 242 203 195 192 183 175 180 183 181 182 171 169 162 174 204 217 203 191 190 192 195 193 192 189 187 193 197 201 202 202 206 207 203 198 194 193 194 189
0 294 269 286 355 0 341 38 66 43 52 117 79 52 262 249 29 310 291 343 333 47 289 319 296 286 267 269 264 263 249 249 251 243 255 242 254 257 256 268 286 291 296 300 301 306 307 284 250 218 208 200 184 179 182 180 180 174 172 175 181 187 187 198 213 202 193 192 194 199 181 179 185 188 191 200 201 208 210 210 203 200 194 193 195 193
233 253 309 13 18 35 344 325 15 41 327 321 216 231 252 309 274 176 270 318 298 328 125 321 313 294 309 267 291 306 296 302 288 300 299 289 250 260 282 299 253 259 277 284 304 312 313 307 257 232 224 192 190 189 187 186 182 180 178 179 182 188 192 191 194 192 186 186 181 185 183 174 177 166 195 203 208 204 208 208 203 200 189 189 195 195
303 259 228 24 9 41 43 339 334 149 1 314 252 198 241 244 267 297 309 358 14 343 321 39 333 293 250 236 242 280 316 298 314 343 305 299 307 322 320 294 301 285 246 258 284 291 295 295 284 252 239 208 200 202 196 190 187 181 182 180 180 188 186 146 170 216 198 199 188 183 184 185 191 202 199 205 203 196 200 206 197 196 190 187 193 194
222 324 51 14 21 2 47 215 290 139 231 60 300 192 219 258 157 302 329 24 346 318 277 65 115 288 264 278 277 268 288 294 320 315 297 305 313 326 298 294 298 295 306 305 295 294 301 297 290 265 241 228 216 212 201 192 188 185 182 184 181 172 159 158 183 186 205 219 202 195 197 197 199 205 211 207 194 201 200 196 199 200 192 190 191 196
339 324 30 28 36 38 34 9 311 356 85 305 276 293 70 22 343 287 210 173 226 260 302 209 151 215 293 352 278 25 338 304 312 308 309 308 309 297 288 286 287 291 289 291 295 296 291 286 273 265 249 233 226 214 179 196 189 185 184 180 177 169 168 174 189 192 189 201 206 202 202 202 202 210 212 191 198 190 183 202 202 196 199 193 193 194
59 322 20 10 28 46 17 279 295 255 190 239 307 299 327 278 274 273 251 233 222 21 296 291 97 322 252 269 19 341 332 318 302 304 305 306 306 299 295 291 285 283 279 279 285 289 290 291 288 271 261 249 235 207 190 192 191 187 184 183 181 178 174 180 189 190 195 198 198 201 206 208 207 205 200 185 192 193 195 203 203 200 199 196 195 196
326 230 276 131 81 23 279 302 291 148 55 282 256 284 258 5 4 288 169 214 332 57 281 251 322 227 280 334 344 324 37 323 314 312 304 295 295 294 293 292 289 285 283 284 275 278 285 284 282 274 271 273 249 222 202 190 185 190 189 190 188 188 179 179 184 189 194 197 195 201 205 209 209 199 191 184 193 196 192 206 206 203 202 199 196 198
260 294 203 102 133 259 282 290 202 105 114 280 42 354 330 25 6 22 59 103 66 23 266 298 351 109 300 289 243 48 351 315 311 311 313 311 307 303 295 288 288 287 290 292 297 292 284 282 282 283 274 263 268 242 211 190 186 189 197 198 194 191 186 181 182 183 191 196 200 204 203 203 207 198 189 186 193 192 194 207 208 204 203 196 199 194
347 347 35 283 2 312 130 324 325 296 331 47 28 345 330 345 359 33 346 36 87 288 255 263 318 198 268 300 272 267 289 293 295 308 316 316 312 308 307 308 303 296 291 292 297 295 298 309 307 296 275 270 258 256 231 209 191 185 189 193 199 197 194 190 186 183 187 194 201 203 204 205 209 198 192 193 195 191 198 204 206 204 194 201 196 196
353 356 272 309 260 30 346 30 298 339 344 29 24 23 55 309 22 349 4 359 95 191 212 217 338 358 224 238 281 297 295 314 336 322 314 311 311 313 313 312 309 305 301 300 299 297 303 304 305 310 301 293 268 239 232 218 202 192 185 187 194 200 198 193 189 189 189 193 199 201 204 208 206 200 198 195 200 198 200 199 201 195 204 194 196 202
288 301 360 11 26 30 51 23 332 4 346 3 16 29 51 25 35 315 280 230 301 284 261 205 259 240 273 296 249 252 296 332 317 324 317 312 307 307 307 310 312 322 330 320 311 308 306 304 303 298 294 292 286 257 237 223 203 195 191 186 190 199 197 195 193 193 193 196 200 201 204 208 204 200 196 198 199 196 200 200 203 201 201 196 203 195
24 339 338 20 349 343 50 81 306 251 319 321 174 121 168 138 308 302 259 296 259 260 276 302 55 237 16 258 270 319 322 313 338 319 310 303 297 299 291 307 342 355 344 340 329 319 310 308 303 300 296 294 288 273 248 232 209 195 193 189 192 194 193 193 196 195 196 199 203 205 206 208 207 203 199 202 201 197 195 196 204 208 205 205 202 198
287 230 262 9 257 19 0 324 313 331 3 312 144 96 59 271 125 223 322 238 300 325 334 256 208 200 196 263 337 320 331 354 349 336 335 336 339 344 343 349 347 339 336 336 332 326 322 316 313 307 303 300 297 282 252 237 223 200 196 194 194 193 191 193 192 194 197 199 202 206 205 208 211 212 208 203 200 201 199 196 199 205 209 212 203 193
27 313 254 319 357 86 345 317 27 5 82 289 346 317 267 159 109 333 338 187 354 55 259 202 305 283 282 335 349 351 -0 352 351 350 349 345 341 339 345 345 339 334 332 332 329 326 324 325 325 323 316 312 311 305 261 238 230 214 201 195 197 195 192 191 194 196 195 196 198 203 204 205 209 211 207 202 201 200 199 199 200 201 205 205 202 198
125 271 301 56 342 265 272 96 77 46 312 18 25 333 343 91 112 129 246 323 269 242 268 9 262 321 39 306 347 5 354 348 347 345 341 338 342 341 336 338 335 328 323 320 319 319 321 319 319 322 321 318 314 309 289 246 239 239 221 205 197 194 191 193 194 195 193 193 196 200 204 206 209 209 209 204 204 203 200 202 200 200 195 202 204 199
119 327 294 257 253 275 356 62 21 348 27 97 213 316 31 331 341 28 64 292 284 278 282 293 266 258 219 297 358 355 352 342 338 338 338 341 340 335 331 329 332 330 327 328 328 325 325 325 324 324 323 320 317 314 301 268 232 233 235 228 212 200 194 191 191 192 194 194 195 197 199 200 203 207 208 207 204 196 201 202 202 202 208 204 197 196
54 136 299 286 34 322 13 72 14 324 359 18 25 17 41 183 232 194 231 336 96 275 348 294 41 314 39 351 347 351 344 339 335 334 335 331 330 326 324 324 324 327 322 319 320 320 317 317 317 319 321 323 323 323 316 302 251 222 221 216 216 219 207 186 189 192 196 198 199 202 208 212 209 207 206 204 199 198 199 202 201 207 206 206 197 206
112 108 258 285 346 18 8 3 110 77 336 332 21 329 44 204 322 295 308 205 195 224 201 303 321 300 304 18 352 345 345 339 336 328 326 326 324 322 318 317 317 316 317 315 316 315 315 315 317 317 318 317 318 320 333 323 317 262 216 200 199 196 184 178 176 178 186 180 186 174 168 176 238 271 267 246 220 206 199 196 201 208 213 193 207 204
88 113 222 309 348 7 241 332 153 160 205 265 215 286 320 324 313 294 285 107 20 173 244 185 272 162 195 16 338 339 340 338 337 331 326 323 320 319 319 316 315 312 313 311 310 311 311 313 315 316 315 317 322 327 338 334 296 281 229 187 159 157 157 143 133 128 133 139 147 153 143 127 111 78 37 6 346 309 243 208 200 205 203 212 215 204
143 163 87 303 251 274 297 263 331 142 206 163 135 304 346 301 232 252 278 297 192 238 215 234 311 263 210 231 314 333 340 341 341 335 328 321 315 317 317 316 313 307 305 308 308 308 308 308 309 309 309 311 316 319 326 334 318 276 219 171 167 167 176 177 169 164 160 154 147 133 106 70 141 163 165 166 175 294 313 296 222 203 213 221 217 211
119 67 51 278 290 312 35 353 356 354 58 61 314 296 347 348 343 300 264 286 282 348 215 200 216 256 258 251 243 297 315 327 326 335 331 327 315 305 316 321 323 322 321 317 312 309 306 307 308 311 312 316 320 325 327 326 325 289 248 211 189 196 186 181 171 169 174 187 192 183 180 187 188 192 193 185 186 192 196 205 210 204 213 218 218 217
78 293 129 269 319 306 11 353 328 278 62 80 303 307 348 341 339 312 262 37 235 238 237 160 267 286 234 358 312 319 335 331 328 329 336 330 323 317 315 318 325 324 324 329 330 323 316 314 315 313 311 311 313 317 321 325 323 315 255 222 207 209 205 193 186 183 183 179 187 185 183 193 195 194 196 195 190 195 196 195 194 195 203 205 213 218
353 223 78 9 355 341 345 349 349 342 358 310 278 300 343 352 355 356 8 309 255 280 273 239 263 279 303 328 307 325 334 325 324 324 328 328 327 330 329 330 326 331 332 334 334 333 327 318 310 309 309 309 309 310 314 318 318 319 295 234 216 208 193 197 191 191 186 185 192 198 196 193 191 193 196 198 196 195 199 203 199 194 193 196 209 212
128 21 168 165 167 207 227 242 191 199 0 26 302 322 335 338 340 312 232 277 312 313 301 280 261 305 317 330 331 325 329 325 325 327 333 337 339 335 330 331 329 336 333 335 334 330 327 323 316 309 307 306 306 309 310 313 315 318 317 286 239 208 194 189 191 188 183 184 193 200 205 200 196 195 197 197 198 194 195 203 206 201 195 191 204 209
72 306 253 201 224 228 238 257 228 146 231 246 281 325 321 325 334 335 46 310 307 301 279 336 321 319 318 325 326 324 323 327 327 319 325 339 346 337 334 330 330 336 335 335 335 335 332 327 319 313 308 310 312 313 313 312 311 312 313 311 292 235 195 188 185 188 188 188 192 198 204 205 204 202 200 201 202 200 197 198 202 207 204 191 199 207
141 209 276 125 249 242 256 254 276 236 212 208 236 296 349 331 331 327 295 282 308 320 319 311 313 314 311 321 319 321 325 320 323 314 314 327 338 341 339 333 336 342 338 339 336 334 332 329 325 318 310 306 309 313 314 314 314 318 319 319 311 279 225 189 187 186 188 189 196 201 199 199 201 205 204 201 201 202 200 197 203 207 206 204 207 207
80 253 218 182 266 247 244 250 240 201 229 198 221 253 347 329 316 294 303 302 295 275 271 300 313 307 302 329 327 324 318 318 315 295 309 330 335 339 342 333 340 345 343 338 335 332 329 328 325 321 314 306 306 309 313 312 309 310 312 312 311 296 267 197 199 195 188 194 201 198 192 195 197 201 203 200 198 203 202 196 196 199 207 212 209 208
122 269 134 191 341 301 89 34 41 263 202 209 237 254 312 318 311 324 309 277 301 241 299 319 314 305 318 327 320 316 316 323 331 318 334 327 323 335 341 337 337 342 344 339 335 332 328 326 326 323 319 312 305 307 307 303 301 304 305 303 306 292 277 253 215 206 209 208 204 194 189 192 201 201 207 209 201 196 198 196 193 198 205 209 208 207
83 267 47 71 18 300 174 200 262 299 154 210 278 287 301 333 351 353 320 291 297 336 329 320 324 334 321 329 321 320 332 336 344 336 331 332 333 342 339 338 335 342 343 339 335 332 328 326 326 324 319 314 308 304 305 305 305 307 302 302 302 304 294 262 243 224 217 222 216 199 192 194 194 201 203 201 200 191 189 190 192 199 205 207 206 206
180 151 288 1 334 263 230 52 349 74 60 6 277 235 222 239 236 269 266 289 281 300 326 337 320 311 313 324 329 334 339 336 339 336 328 328 333 337 338 336 333 340 344 339 337 331 326 326 323 320 316 313 307 303 299 300 302 300 297 301 294 308 302 260 248 242 235 225 215 212 200 196 197 200 202 201 195 185 180 187 195 199 202 205 203 201
93 151 227 199 222 271 307 330 12 64 337 243 228 188 148 248 278 303 311 301 295 22 345 287 295 304 320 332 332 332 334 332 321 320 322 329 330 332 334 336 335 338 337 335 333 327 328 328 325 320 314 308 303 296 291 291 291 290 293 291 296 292 282 260 247 235 239 232 223 217 212 207 204 207 211 208 198 188 187 192 200 200 200 200 201 207
148 108 190 180 251 267 326 5 40 344 239 240 276 259 203 222 207 256 279 275 269 283 335 321 319 324 322 327 325 320 315 311 314 319 319 334 331 330 336 339 338 341 338 335 335 331 331 330 327 323 319 314 305 298 299 302 299 304 304 303 306 299 289 271 260 249 241 238 234 225 218 216 212 214 209 202 198 194 200 205 209 207 203 198 199 202
170 152 170 266 202 329 33 35 87 248 234 284 287 268 241 69 197 268 276 271 228 157 321 304 315 318 323 326 327 322 315 311 303 300 293 331 339 338 337 340 342 341 340 337 335 332 333 332 326 324 320 321 310 292 301 299 305 307 307 312 309 312 308 285 263 261 256 245 242 231 222 214 220 223 220 208 199 196 201 206 206 207 202 202 209 213
150 107 141 258 154 213 199 152 229 304 335 9 37 29 39 256 275 154 295 258 244 246 297 309 319 325 322 323 325 324 321 315 303 310 350 345 339 337 336 337 342 341 339 337 335 332 333 329 329 327 329 331 338 337 332 326 324 320 319 319 317 318 311 308 286 258 234 240 240 232 228 217 215 219 219 209 201 204 205 205 208 207 192 198 203 205
159 184 222 143 287 125 201 332 339 15 312 273 236 274 288 224 197 180 186 287 230 289 302 331 326 324 323 321 328 328 319 333 351 346 344 341 336 333 335 336 336 341 339 336 335 335 337 334 333 336 336 334 334 335 333 340 340 331 323 320 318 318 312 304 293 280 247 237 233 227 222 218 214 215 211 203 207 207 208 208 210 205 192 201 200 205
47 90 139 150 245 43 68 165 219 175 245 205 238 247 254 206 184 157 136 273 245 299 336 348 324 321 319 324 329 332 348 349 341 332 333 334 334 337 338 337 335 339 338 337 337 337 337 333 335 335 338 338 339 341 338 338 342 340 338 332 326 320 312 311 310 314 307 287 259 245 237 227 224 220 207 204 209 207 208 209 210 206 198 212 215 218
77 14 95 196 277 222 140 117 245 210 233 221 226 259 246 164 136 99 347 280 259 327 328 340 323 316 316 326 335 337 347 334 333 327 323 325 328 332 336 334 335 340 340 337 337 339 333 331 338 347 349 347 345 339 337 341 341 342 341 337 329 327 325 321 316 306 296 290 279 252 238 243 235 227 215 209 208 207 209 205 202 200 199 208 213 220
44 347 96 208 184 200 171 261 312 300 273 253 241 248 277 168 101 70 246 253 292 328 313 327 305 305 313 328 342 336 331 316 304 304 311 321 329 333 335 337 335 337 337 336 336 338 337 339 347 346 345 343 342 341 337 341 341 341 341 336 333 330 324 318 313 309 304 299 293 285 265 240 236 242 240 226 214 205 204 200 197 191 195 203 207 215
330 117 316 77 146 197 198 179 242 256 239 205 258 206 163 97 351 242 234 214 307 309 302 296 295 297 308 313 317 311 304 307 308 314 323 332 333 328 333 335 334 335 336 334 335 343 340 339 345 348 347 348 346 343 339 341 341 339 341 335 332 330 321 314 309 305 301 296 292 288 283 272 251 238 244 245 240 235 225 210 199 200 200 202 201 207
195 134 219 188 169 63 43 43 354 324 260 175 193 41 91 123 234 208 249 299 234 273 286 294 283 289 308 308 306 303 305 313 319 325 326 329 334 336 337 338 341 340 340 343 345 349 348 345 346 348 346 344 346 342 340 339 343 343 339 336 332 325 321 315 308 299 294 289 284 280 276 276 271 259 246 244 237 234 242 228 204 209 194 197 204 208
195 117 243 260 188 170 126 158 196 208 227 218 154 206 232 200 194 175 153 263 278 242 269 296 290 286 304 301 311 311 308 314 327 332 329 331 336 332 338 339 339 336 336 340 342 343 344 345 343 341 345 346 346 344 342 345 340 341 340 335 328 323 321 318 313 304 292 283 277 273 266 262 265 264 256 246 239 234 239 239 225 215 203 200 200 207
214 175 180 173 209 149 200 219 241 230 207 216 191 222 221 246 199 181 171 206 245 283 226 327 289 310 316 310 305 307 313 332 325 324 332 328 331 336 338 341 339 337 339 341 342 342 345 347 345 341 342 347 348 347 347 347 345 338 342 336 327 326 324 319 314 305 295 287 273 262 259 255 254 255 254 247 232 229 229 235 226 224 220 197 206 210
271 178 168 98 252 263 253 229 234 268 244 262 232 219 226 276 268 161 168 214 234 229 264 268 295 299 311 319 319 317 320 326 331 330 331 334 333 332 336 339 342 341 341 342 345 347 344 345 345 344 340 344 352 349 350 347 346 341 336 329 325 322 321 318 313 304 291 283 274 265 255 251 249 244 242 241 233 227 224 220 214 216 215 197 208 212
263 168 150 198 257 55 272 337 191 234 232 260 248 273 258 239 235 182 180 195 233 257 283 271 267 284 295 305 325 317 316 328 331 328 332 335 336 336 338 338 340 342 343 343 341 345 348 349 350 348 345 343 349 348 347 347 344 340 334 333 330 328 324 320 310 300 294 281 274 266 256 248 245 239 234 230 228 227 226 221 220 210 207 201 208 210
321 183 175 215 165 176 235 253 256 251 251 257 229 246 218 218 232 230 218 215 224 251 238 251 284 322 336 348 337 315 308 329 345 337 334 338 331 335 338 338 341 342 343 342 343 348 348 353 351 347 346 346 343 345 345 345 342 340 337 335 334 332 328 324 318 307 297 288 278 266 255 247 237 232 232 224 215 214 218 223 218 215 204 203 202 206
184 101 256 173 201 270 313 281 274 295 290 275 248 245 237 221 222 222 174 172 144 18 346 338 24 294 305 318 318 320 345 343 339 335 332 336 337 342 340 333 337 338 340 345 345 349 349 347 347 345 343 343 344 343 341 341 340 340 341 339 336 335 332 328 319 312 302 293 286 274 259 241 227 218 220 218 213 205 207 230 230 225 233 302 193 203
90 230 215 98 290 275 235 252 130 342 286 287 246 229 225 232 184 163 120 86 39 34 346 335 322 318 297 325 340 342 357 331 338 343 341 338 335 336 337 338 338 340 342 344 342 346 348 350 346 341 338 340 343 342 341 339 338 341 341 338 338 335 334 329 323 323 322 320 305 290 266 232 216 208 208 211 194 146 84 53 52 22 330 102 44 60
205 219 150 196 176 238 244 236 203 200 238 232 214 214 201 186 155 147 157 162 187 265 250 266 327 340 353 344 338 355 349 344 337 338 341 348 343 338 333 334 340 344 343 346 346 348 350 347 348 346 344 340 339 340 342 343 342 342 344 343 341 338 332 335 346 349 341 335 323 300 264 206 192 187 185 179 151 115 116 98 51 50 54 67 69 65